TimeCDT,TemperatureF,Dew PointF,Humidity,Sea Level PressureIn,VisibilityMPH,Wind Direction,Wind SpeedMPH,Gust SpeedMPH,PrecipitationIn,Events,Conditions,WindDirDegrees,DateUTC
12:52 AM,39.9,37.0,89,29.71,10.0,East,16.1,20.7,N/A,,Overcast,90,2013-04-11 05:52:00
1:14 AM,39.2,37.4,93,29.70,7.0,East,18.4,25.3,0.01,Rain,Light Rain,90,2013-04-11 06:14:00
1:52 AM,39.9,37.9,93,29.70,5.0,East,12.7,20.7,0.03,Rain,Light Rain,80,2013-04-11 06:52:00
2:52 AM,39.9,37.9,93,29.66,4.0,East,11.5,-,0.03,Rain,Light Rain,90,2013-04-11 07:52:00
3:15 AM,39.2,39.2,100,29.66,2.5,ESE,8.1,-,0.02,Rain,Light Rain,110,2013-04-11 08:15:00
3:22 AM,39.2,39.2,100,29.66,4.0,ESE,10.4,-,0.02,Rain,Light Rain,110,2013-04-11 08:22:00
3:52 AM,39.9,39.0,97,29.67,4.0,East,8.1,-,0.03,,Overcast,90,2013-04-11 08:52:00
4:01 AM,39.2,39.2,100,29.67,3.0,East,4.6,-,N/A,,Overcast,100,2013-04-11 09:01:00
4:52 AM,41.0,39.9,96,29.68,4.0,Calm,Calm,-,0.01,,Overcast,0,2013-04-11 09:52:00
5:37 AM,41.0,39.2,93,29.63,10.0,NE,6.9,-,0.01,,Overcast,50,2013-04-11 10:37:00
5:52 AM,41.0,39.0,93,29.65,10.0,ENE,4.6,-,0.01,,Overcast,60,2013-04-11 10:52:00
6:52 AM,41.0,39.9,96,29.64,5.0,NNE,4.6,-,0.01,,Overcast,30,2013-04-11 11:52:00
7:22 AM,41.0,39.2,93,29.66,3.0,Calm,Calm,-,N/A,,Overcast,0,2013-04-11 12:22:00
7:52 AM,41.0,39.9,96,29.65,4.0,Calm,Calm,-,0.00,,Overcast,0,2013-04-11 12:52:00
8:52 AM,42.1,41.0,96,29.66,6.0,South,3.5,-,N/A,,Overcast,170,2013-04-11 13:52:00
9:38 AM,42.8,41.0,93,29.63,10.0,SSW,4.6,-,N/A,,Overcast,210,2013-04-11 14:38:00
10:52 AM,44.1,41.0,89,29.64,10.0,West,8.1,-,N/A,,Overcast,260,2013-04-11 15:52:00
11:13 AM,44.6,41.0,87,29.63,10.0,West,5.8,-,N/A,,Overcast,280,2013-04-11 16:13:00
11:43 AM,44.6,39.2,81,29.62,10.0,West,4.6,-,N/A,,Overcast,260,2013-04-11 16:43:00
11:52 AM,45.0,39.9,82,29.63,10.0,WSW,4.6,-,N/A,,Overcast,240,2013-04-11 16:52:00
12:52 PM,45.0,41.0,86,29.62,10.0,Calm,Calm,-,N/A,,Overcast,0,2013-04-11 17:52:00
1:02 PM,46.4,41.0,81,29.60,10.0,Calm,Calm,-,N/A,,Overcast,0,2013-04-11 18:02:00
1:12 PM,46.4,42.8,87,29.61,10.0,Calm,Calm,-,N/A,,Overcast,0,2013-04-11 18:12:00
1:22 PM,46.4,41.0,81,29.60,10.0,Calm,Calm,-,N/A,,Overcast,0,2013-04-11 18:22:00
1:29 PM,46.4,41.0,81,29.60,10.0,Calm,Calm,-,N/A,,Overcast,0,2013-04-11 18:29:00
1:52 PM,45.0,41.0,86,29.61,10.0,Calm,Calm,-,N/A,,Overcast,0,2013-04-11 18:52:00
2:19 PM,44.6,42.8,93,29.60,2.5,Calm,Calm,-,0.02,Rain,Light Rain,0,2013-04-11 19:19:00
2:24 PM,44.6,42.8,93,29.60,3.0,Calm,Calm,-,0.02,Rain,Light Rain,0,2013-04-11 19:24:00
2:52 PM,45.0,42.1,90,29.61,5.0,SW,8.1,-,0.04,Rain,Light Rain,230,2013-04-11 19:52:00
3:00 PM,44.6,42.8,93,29.60,8.0,SW,6.9,-,0.00,,Overcast,230,2013-04-11 20:00:00
3:08 PM,44.6,42.8,93,29.60,10.0,WSW,16.1,19.6,0.00,Rain,Light Rain,240,2013-04-11 20:08:00
3:11 PM,44.6,42.8,93,29.60,8.0,WSW,13.8,19.6,0.00,Rain,Light Rain,240,2013-04-11 20:11:00
3:13 PM,44.6,42.8,93,29.60,7.0,WSW,12.7,-,0.00,,Overcast,240,2013-04-11 20:13:00
3:52 PM,45.0,42.1,90,29.61,10.0,WSW,17.3,20.7,0.00,,Overcast,240,2013-04-11 20:52:00
4:17 PM,42.8,39.2,87,29.61,6.0,WSW,12.7,-,0.00,Rain,Light Rain,240,2013-04-11 21:17:00
4:24 PM,42.8,39.2,87,29.61,4.0,WSW,11.5,-,0.00,Rain,Light Rain,240,2013-04-11 21:24:00
4:52 PM,42.1,42.1,100,29.63,6.0,WSW,16.1,25.3,0.01,Rain,Light Rain,240,2013-04-11 21:52:00
5:00 PM,42.8,42.8,100,29.61,4.0,SW,17.3,25.3,0.00,Rain,Light Rain,230,2013-04-11 22:00:00
5:33 PM,39.2,39.2,100,29.60,10.0,WSW,15.0,25.3,0.00,,Overcast,250,2013-04-11 22:33:00
5:43 PM,39.2,39.2,100,29.60,8.0,WSW,17.3,23.0,0.00,,Overcast,250,2013-04-11 22:43:00
5:52 PM,39.0,39.0,100,29.63,9.0,WSW,15.0,23.0,0.00,,Overcast,250,2013-04-11 22:52:00
6:52 PM,39.9,39.0,97,29.63,10.0,WSW,11.5,-,N/A,,Overcast,250,2013-04-11 23:52:00
7:52 PM,37.9,33.1,83,29.65,10.0,WSW,11.5,20.7,N/A,,Overcast,240,2013-04-12 00:52:00
8:12 PM,37.4,33.8,87,29.63,10.0,SW,11.5,-,N/A,,Overcast,230,2013-04-12 01:12:00
8:52 PM,37.0,30.9,79,29.64,10.0,WSW,11.5,20.7,N/A,,Overcast,240,2013-04-12 01:52:00
9:52 PM,37.0,30.9,79,29.65,10.0,WSW,10.4,-,N/A,,Overcast,240,2013-04-12 02:52:00
10:36 PM,37.4,30.2,75,29.63,10.0,SW,10.4,-,N/A,,Overcast,230,2013-04-12 03:36:00
10:52 PM,37.0,30.9,79,29.65,10.0,SW,8.1,-,N/A,,Overcast,230,2013-04-12 03:52:00
11:11 PM,37.4,30.2,75,29.64,10.0,SW,9.2,-,N/A,,Overcast,230,2013-04-12 04:11:00
11:52 PM,37.0,30.9,79,29.65,10.0,SW,6.9,-,N/A,,Overcast,230,2013-04-12 04:52:00